Miscellaneous Local Product
Issued by NWS Hastings, NE

Home | Current Version | Previous Version | Text Only | Print | Product List | Glossary Off
Versions: 1 2 3 4 5 6 7 8 9 10 11 12 13 14 15 16 17 18 19 20 21 22 23 24 25 26 27 28 29 30 31 32 33 34 35 36 37 38 39 40 41 42 43 44 45 46 47 48 49 50

000
AXUS43 KGID 251402
MISGRI

GID CWA HOURLY WEATHER ROUNDUP
NATIONAL WEATHER SERVICE HASTINGS NE
900 AM CDT WED MAY 25 2016

NOTE: "FAIR" INDICATES FEW OR NO CLOUDS BELOW 12,000 FEET WITH NO
SIGNIFICANT WEATHER AND/OR OBSTRUCTIONS TO VISIBILITY.

...SOUTH CENTRAL NEBRASKA...

CITY           SKY/WX    TMP DP  RH WIND       PRES   REMARKS
GRAND ISLAND   SUNNY     64  60  87 S12       29.86F
HASTINGS       SUNNY     64  59  83 E3        29.89F
KEARNEY        SUNNY     64  59  82 SE9       29.88F
ORD            SUNNY     63  57  81 W10       29.85R
YORK           CLOUDY    64  59  82 S5        29.87F
AURORA         MOSUNNY   62  62  97 S3        29.88F
LEXINGTON      SUNNY     64  56  77 SE5       29.89S
HOLDREGE       MOSUNNY   64  58  81 SE12      29.87F
HEBRON         CLOUDY    60  58  93 CALM      29.90F THUNDER

...NEBRASKA PANHANDLE...

CITY           SKY/WX    TMP DP  RH WIND       PRES   REMARKS
CHADRON        SUNNY     54  32  43 SW7       29.89S
ALLIANCE       PTSUNNY   53  50  89 SW12      29.93R
SCOTTSBLUFF    SUNNY     55  48  77 VRB5      29.94R
SIDNEY         PTSUNNY   51  50  96 W10       29.98R FOG

...WESTERN AND NORTH CENTRAL NEBRASKA...

CITY           SKY/WX    TMP DP  RH WIND       PRES   REMARKS
VALENTINE      MOSUNNY   60  54  80 W14       29.84R
AINSWORTH      MOSUNNY   61  56  85 SW6       29.82R
ONEILL         PTSUNNY   62  58  88 SW13      29.84S
BROKEN BOW     SUNNY     66  57  72 S8        29.87F
IMPERIAL       SUNNY     61  52  72 SE9       29.93R
NORTH PLATTE   SUNNY     62  56  80 SE6       29.89R
MCCOOK         SUNNY     66  55  67 E13       29.88R

...EASTERN NEBRASKA...

CITY           SKY/WX    TMP DP  RH WIND       PRES   REMARKS
NORFOLK        CLOUDY    64  59  83 S7        29.79F
SO SIOUX CITY  CLOUDY    68  60  75 SE9       29.84F
TEKAMAH        CLOUDY    66  61  84 SE8       29.85F
COLUMBUS       CLOUDY    63  55  77 S7        29.83F
ALBION         PTSUNNY   63  60  91 S10       29.82S
OMAHA EPPLEY   CLOUDY    67  62  84 SW3       29.89S
OFFUTT AFB     PTSUNNY   65  63  93 S5        29.89S
MILLARD        CLOUDY    67  61  78 CALM      29.89S
LINCOLN        LGT RAIN  64  62  93 S5        29.89F
NEBRASKA CITY  LGT RAIN  63  63 100 NW5       29.94R
BEATRICE       RAIN      63  59  88 W7        29.93R
FALLS CITY     LGT RAIN  64  61  90 W8        29.90F

...NORTHERN KANSAS...

CITY           SKY/WX    TMP DP  RH WIND       PRES   REMARKS
GOODLAND       CLOUDY    59  55  87 E15       29.92R
HILL CITY      CLOUDY    62  56  80 NE13      29.89R
NORTON         CLOUDY    63  52  67 E12       29.87F
PHILLIPSBURG   CLOUDY    63  55  77 NE8       29.89R
SMITH CENTER   CLOUDY    59  57  94 NE9       29.89S
RUSSELL        CLOUDY    64  61  90 E8        29.84F
CONCORDIA      CLOUDY    62  58  86 NE10      29.87F
SALINA         MOSUNNY   73  64  73 S9        29.86R
TOPEKA         PTSUNNY   69  60  73 N8        29.89R



USA.gov is the U.S. government's official web portal to all federal, state and local government web resources and services.